Skip Page Navigation
NASA JPL Caltech
NASA Logo - Jet Propulsion Laboratory + View the NASA Portal
+ Near-Earth Object (NEO) Program
Search JPL
JPL Home Earth Solar System Stars & Galaxies Technology
JPL Solar System Dynamics
BODIES ORBITS EPHEMERIDES TOOLS PHYSICAL DATA DISCOVERY FAQ SITE MAP
JPL Small-Body Database Browser
Search: [ help ]  
341843 (2008 EV5)
Classification: Aten [NEO, PHA]          SPK-ID: 2341843
Ephemeris | Orbit Diagram | Orbital Elements | Physical Parameters | Discovery Circumstances | Close-Approach Data ]

[ hide orbit diagram ]
Orbit Diagram
Note: Make sure you have Java enabled on your browser to see the applet. This applet is provided as a 3D orbit visualization tool. The applet was implemented using 2-body methods, and hence should not be used for determining accurate long-term trajectories (over several years or decades) or planetary encounter circumstances. For accurate long-term ephemerides, please instead use our Horizons system.
Orbit Viewer

Additional Notes: the orbits shown in the applet are color coded. The planets are white lines, and the asteroid/comet is a blue line. The bright white line indicates the portion of the orbit that is above the ecliptic plane, and the darker portion is below the ecliptic plane. Likewise for the asteroid/comet orbit, the light blue indicates the portion above the ecliptic plane, and the dark blue the portion below the ecliptic plane.

Orbit Viewer applet originally written and kindly provided by Osamu Ajiki (AstroArts), and further modified by Ron Baalke (JPL).


Orbital Elements at Epoch 2456400.5 (2013-Apr-18.0) TDB
Reference: JPL 100 (heliocentric ecliptic J2000)
 Element Value Uncertainty (1-sigma)   Units 
e .08358005415264315 2.0601e-08  
a .9582925094107022 1.5523e-08 AU
q .8781983695800835 3.1568e-08 AU
i 7.437029357564417 1.4298e-06 deg
node 93.4009507859591 1.1132e-06 deg
peri 234.7898665603642 9.725e-06 deg
M 332.5653545818437 4.8581e-05 deg
tp 2456426.612137127512
(2013-May-14.11213713)
4.6866e-05 JED
period 342.6459217031904
0.94
8.3258e-06
2.279e-08
d
yr
n 1.050647263538255 2.5529e-08 deg/d
Q 1.038386649241321 1.6821e-08 AU
  Orbit Determination Parameters
   # obs. used (total)      994  
   # delay obs. used      4  
   # Doppler obs. used      0  
   data-arc span      768 days (2.10 yr)  
   first obs. used      2008-03-04  
   last obs. used      2010-04-11  
   planetary ephem.      DE405  
   SB-pert. ephem.      SB405-CPV-2  
   condition code      0  
   fit RMS      .40331  
   data source      ORB  
   producer      Otto Matic  
   solution date      2013-Apr-29 15:41:50  

Additional Information
 Earth MOID = .013613 AU 
 T_jup = 6.278 
[ show covariance matrix ]

Ephemeris | Orbit Diagram | Orbital Elements | Physical Parameters | Discovery Circumstances | Close-Approach Data ]

Physical Parameter Table
Parameter Symbol Value Units Sigma Reference Notes
absolute magnitude H 20.005 mag .4232 100 autocmod 2.5c
diameter diameter 0.450 km .040 "Delay-Doppler and Radar-Interferometric Imaging of the Near-Earth Asteroid 2008 Oblate spheroid w/slight equatorial ridge
rotation period rot_per 3.725 h .001 Galad, A. et al. (2009) MPB 36, 116-118.  
pole direction pole 77.6/-82.3   10 "Delay-Doppler and Radar-Interferometric Imaging of the Near-Earth Asteroid 2008 10 degree uncertainty in pole direction

341843 (2008 EV5)          Discovered 2008-Mar-04 by Mt. Lemmon Survey at Mount Lemmon (G96)
Reference: 20121029/Numbers.arcLast Updated: 2012-11-08

[ show close-approach data ]
Ephemeris | Orbit Diagram | Orbital Elements | Physical Parameters | Discovery Circumstances | Close-Approach Data ]
ABOUT SSD CREDITS/AWARDS PRIVACY/COPYRIGHT GLOSSARY LINKS
FirstGov 2013-Jun-19 08:46 UT
(server date/time)  
NASA Home Page
Site Manager:   Donald K. Yeomans
Webmaster  Alan B. Chamberlin